Regional Weather Roundup
Issued by NWS Cleveland, OH

Home | Current Version | Previous Version | Graphics & Text | Print | Product List | Glossary On
Versions: 1 2 3 4 5 6 7 8 9 10 11 12 13 14 15 16 17 18 19 20 21 22 23 24 25 26 27 28 29 30 31 32 33 34 35 36 37 38 39 40 41 42 43 44 45 46 47 48 49 50
000
ASUS41 KCLE 211100
RWRCLE
OHIO REGIONAL WEATHER ROUNDUP
NATIONAL WEATHER SERVICE WILMINGTON, OH
700 AM EDT TUE APR 21 2015

NOTE: "FAIR" INDICATES FEW OR NO CLOUDS BELOW 12,000 FEET WITH NO
SIGNIFICANT WEATHER AND/OR OBSTRUCTIONS TO VISIBILITY.

OHZ001>008-015>018-024>027-034-035-043-044-211200-
   NORTHWEST OHIO

CITY           SKY/WX    TMP DP  RH WIND       PRES   REMARKS
DEFIANCE       MOCLDY    42  34  73 SW13      29.65R
FINDLAY        CLEAR     42  34  73 S15       29.66S
TOLEDO EXPRESS PTCLDY    42  34  73 SW13      29.63S
TOLEDO EXEC    PTCLDY    42  34  73 SW12      29.64S
LIMA           PTCLDY    44  33  65 SW18G26   29.68S
$$

OHZ009>014-019>023-028>033-038-089-211200-
   NORTHEAST OHIO

CITY           SKY/WX    TMP DP  RH WIND       PRES   REMARKS
CLE-HOPKINS    PTCLDY    44  34  67 SW12      29.70R
CLE-LAKEFRONT  MOCLDY    45  34  65 SW15      29.67S
CUY CO. ARPT   MOCLDY    45  36  70 MISG      29.68
LORAIN-ELYRIA  PTCLDY    42  34  73 SW13      29.68S
ASHTABULA      CLOUDY    43  31  62 SW13      29.68R
AKRON-CANTON   MOCLDY    43  34  70 SW10      29.71R
WOOSTER        NOT AVBL
MANSFIELD      PTCLDY    41  31  67 SW14      29.70R
YOUNGSTOWN     PTCLDY    43  33  68 SW8       29.69S
$$

OHZ042-051>053-060>062-070>072-077>081-211200-
  SOUTHWEST OHIO

CITY           SKY/WX    TMP DP  RH WIND       PRES   REMARKS
CINC-COVINGTON PTCLDY    41  33  73 S7        29.80S
CINC-LUNKEN    FAIR      41  35  79 SW6       29.82S
HAMILTON       PTCLDY    45  35  68 SW7       29.80S
DAYTON         NOT AVBL
WRIGHT-PAT AFB NOT AVBL
DAYTON GENERAL PTCLDY    43  35  73 S9        29.76S
WILMINGTON     CLEAR     41  34  76 SW12      29.78S
$$

OHZ036-037-039>041-045>050-054>059-063>069-073>076-082>088-211200-
  CENTRAL AND SOUTHEAST OHIO

CITY           SKY/WX    TMP DP  RH WIND       PRES   REMARKS
COLUMBUS       CLEAR     42  36  79 S7        29.76S
OSU AIRPORT    FAIR      41  35  79 S9        29.75S
BOLTON FIELD   NOT AVBL
RICKENBACK AFB NOT AVBL
NEWARK         PTCLDY    43  35  73 SW7       29.76S
MARION         CLEAR     40  33  76 S13       29.71F
LANCASTER      CLEAR     43  35  73 SW10      29.78R
ZANESVILLE     PTCLDY    43  33  68 SW6       29.77R
NEW PHILLY     MOCLDY    43  36  76 VRB6      29.75S
$$


USA.gov is the U.S. government's official web portal to all federal, state and local government web resources and services.